�������l�o���
Date,Time,MP-1(��Sv/h),MP-2(��Sv/h),MP-3(��Sv/h),MP-4(��Sv/h),MP-5(��Sv/h),MP-6(��Sv/h),MP-7(��Sv/h),MP-8(��Sv/h),����,����(m/s),���J
2017/04/28,00:00,1.015,1.636,1.091,1.958,1.352,0.543,0.997,0.923,�k��,4.1,��
2017/04/28,00:10,1.013,1.637,1.094,1.957,1.353,0.543,0.999,0.922,�k��,4.1,��
2017/04/28,00:20,1.014,1.638,1.092,1.956,1.355,0.543,0.997,0.920,�k��,2.8,��
2017/04/28,00:30,1.016,1.636,1.095,1.962,1.350,0.545,0.997,0.923,�k��,3.0,��
2017/04/28,00:40,1.017,1.636,1.093,1.959,1.353,0.544,0.999,0.923,�k��,5.0,��
2017/04/28,00:50,1.015,1.638,1.094,1.961,1.350,0.541,0.997,0.922,���k��,5.9,��
2017/04/28,01:00,1.014,1.635,1.093,1.961,1.353,0.542,0.998,0.921,���k��,6.1,��
2017/04/28,01:10,1.016,1.636,1.093,1.958,1.352,0.542,0.997,0.922,���k��,5.0,��
2017/04/28,01:20,1.013,1.636,1.092,1.960,1.355,0.541,0.998,0.922,���k��,6.3,��
2017/04/28,01:30,1.013,1.637,1.093,1.960,1.353,0.543,0.997,0.922,���k��,4.3,��
2017/04/28,01:40,1.013,1.636,1.094,1.962,1.352,0.543,0.998,0.921,��,4.5,��
2017/04/28,01:50,1.014,1.634,1.093,1.963,1.352,0.543,0.999,0.924,��,4.9,��
2017/04/28,02:00,1.015,1.637,1.094,1.964,1.352,0.543,0.997,0.921,��,5.2,��
2017/04/28,02:10,1.016,1.638,1.093,1.964,1.354,0.544,0.996,0.923,��,3.4,��
2017/04/28,02:20,1.013,1.636,1.094,1.963,1.350,0.542,0.995,0.922,��쐼,1.9,��
2017/04/28,02:30,1.015,1.635,1.094,1.962,1.355,0.542,0.997,0.921,���쐼,1.2,��
2017/04/28,02:40,1.015,1.637,1.093,1.961,1.353,0.543,0.997,0.922,�쐼,1.9,��
2017/04/28,02:50,1.011,1.636,1.091,1.957,1.349,0.542,0.996,0.921,��,3.5,��
2017/04/28,03:00,1.015,1.634,1.091,1.962,1.351,0.545,0.994,0.922,���쐼,2.6,��
2017/04/28,03:10,1.014,1.636,1.092,1.959,1.353,0.541,0.995,0.920,�쐼,2.0,��
2017/04/28,03:20,1.014,1.632,1.092,1.960,1.350,0.543,0.995,0.920,��,3.4,��
2017/04/28,03:30,1.014,1.635,1.092,1.957,1.351,0.543,0.993,0.921,���쐼,3.1,��
2017/04/28,03:40,1.014,1.637,1.090,1.961,1.351,0.543,0.995,0.920,���쐼,3.0,��
2017/04/28,03:50,1.012,1.636,1.091,1.958,1.352,0.542,0.997,0.922,��,3.9,��
2017/04/28,04:00,1.013,1.634,1.094,1.960,1.354,0.542,0.995,0.923,��,3.0,��
2017/04/28,04:10,1.014,1.638,1.092,1.962,1.352,0.542,0.995,0.921,���쐼,3.2,��
2017/04/28,04:20,1.014,1.636,1.091,1.963,1.351,0.543,0.997,0.922,��,4.2,��
2017/04/28,04:30,1.013,1.636,1.092,1.960,1.348,0.543,0.996,0.922,���쐼,3.4,��
2017/04/28,04:40,1.013,1.636,1.091,1.959,1.352,0.542,0.996,0.920,��,5.5,��
2017/04/28,04:50,1.014,1.635,1.092,1.964,1.352,0.544,0.997,0.923,���쐼,6.2,��
2017/04/28,05:00,1.014,1.638,1.091,1.960,1.353,0.544,0.997,0.922,���쐼,6.2,��
2017/04/28,05:10,1.011,1.636,1.091,1.963,1.354,0.543,0.997,0.922,��,6.9,��
2017/04/28,05:20,1.012,1.638,1.091,1.961,1.351,0.543,0.997,0.922,��,6.7,��
2017/04/28,05:30,1.015,1.637,1.093,1.963,1.352,0.542,0.997,0.923,���쐼,6.4,��
2017/04/28,05:40,1.011,1.636,1.091,1.962,1.352,0.541,0.998,0.922,��,6.8,��
2017/04/28,05:50,1.013,1.638,1.093,1.963,1.353,0.544,0.998,0.922,��,5.0,��
2017/04/28,06:00,1.014,1.635,1.093,1.963,1.353,0.544,0.998,0.922,��,2.6,��
2017/04/28,06:10,1.011,1.639,1.093,1.963,1.353,0.545,0.998,0.922,�k��,1.2,��
2017/04/28,06:20,1.013,1.637,1.093,1.965,1.352,0.544,0.997,0.921,�k�k��,1.5,��
2017/04/28,06:30,1.012,1.640,1.096,1.962,1.351,0.543,0.997,0.921,�k�k��,1.6,��
2017/04/28,06:40,1.012,1.638,1.094,1.966,1.352,0.544,0.999,0.922,�k�k��,2.6,��
2017/04/28,06:50,1.013,1.638,1.094,1.962,1.354,0.545,0.998,0.924,�k,1.2,��
2017/04/28,07:00,1.015,1.639,1.095,1.965,1.352,0.544,0.999,0.923,���k��,1.7,��
2017/04/28,07:10,1.016,1.639,1.093,1.964,1.354,0.542,0.997,0.925,�k�k��,2.0,��
2017/04/28,07:20,1.016,1.638,1.094,1.964,1.356,0.544,1.000,0.923,�k�k��,1.5,��
2017/04/28,07:30,1.016,1.638,1.098,1.965,1.355,0.545,1.000,0.922,�k��,0.7,��
2017/04/28,07:40,1.016,1.643,1.097,1.965,1.357,0.544,0.998,0.924,�k��,4.5,��
2017/04/28,07:50,1.019,1.643,1.097,1.968,1.358,0.546,1.001,0.923,��,8.3,��
2017/04/28,08:00,1.020,1.643,1.098,1.967,1.354,0.543,0.999,0.925,��,7.2,��
2017/04/28,08:10,1.018,1.641,1.098,1.969,1.356,0.543,1.000,0.924,���k��,8.8,��
2017/04/28,08:20,1.019,1.639,1.099,1.969,1.353,0.542,0.998,0.925,���k��,8.2,��
2017/04/28,08:30,1.021,1.642,1.098,1.969,1.357,0.544,0.997,0.923,���k��,6.5,��
2017/04/28,08:40,1.020,1.642,1.096,1.970,1.357,0.544,0.998,0.922,���k��,7.4,��
2017/04/28,08:50,1.019,1.643,1.098,1.970,1.359,0.543,0.996,0.920,���k��,7.6,��
2017/04/28,09:00,1.018,1.642,1.096,1.970,1.357,0.544,0.998,0.921,���k��,6.4,��
2017/04/28,09:10,1.020,1.642,1.099,1.968,1.355,0.543,0.999,0.922,��,4.5,��
2017/04/28,09:20,1.018,1.642,1.097,1.973,1.359,0.544,0.998,0.922,���k��,2.5,��
2017/04/28,09:30,1.016,1.638,1.096,1.973,1.358,0.542,0.999,0.921,�쓌,7.3,��
2017/04/28,09:40,1.017,1.643,1.097,1.970,1.358,0.541,0.998,0.918,��쓌,8.7,��
2017/04/28,09:50,1.019,1.644,1.098,1.974,1.357,0.542,0.997,0.921,��쓌,10.1,��
2017/04/28,10:00,1.018,1.643,1.097,1.975,1.360,0.540,0.997,0.921,��쓌,8.0,��
2017/04/28,10:10,1.018,1.646,1.100,1.972,1.358,0.541,0.999,0.920,��쓌,7.8,��
2017/04/28,10:20,1.018,1.650,1.098,1.971,1.358,0.543,0.998,0.919,��쓌,7.8,��
2017/04/28,10:30,1.016,1.647,1.100,1.972,1.359,0.543,0.998,0.921,��쓌,7.2,��
2017/04/28,10:40,1.019,1.647,1.098,1.974,1.360,0.545,0.997,0.920,��쓌,6.9,��
2017/04/28,10:50,1.020,1.644,1.098,1.972,1.361,0.542,1.000,0.922,��쓌,8.3,��
2017/04/28,11:00,1.020,1.648,1.099,1.976,1.359,0.544,0.997,0.922,��쓌,8.3,��
2017/04/28,11:10,1.021,1.652,1.099,1.975,1.363,0.544,0.999,0.921,��쓌,8.4,��
2017/04/28,11:20,1.025,1.649,1.099,1.975,1.364,0.546,0.999,0.921,�쓌,7.0,��
2017/04/28,11:30,1.021,1.650,1.100,1.976,1.364,0.544,0.999,0.923,��쓌,5.9,��
2017/04/28,11:40,1.021,1.651,1.101,1.972,1.363,0.544,1.000,0.922,��쓌,6.3,��
2017/04/28,11:50,1.023,1.651,1.101,1.972,1.367,0.546,1.001,0.922,��쓌,7.3,��
2017/04/28,12:00,1.021,1.653,1.102,1.972,1.366,0.545,1.000,0.922,��쓌,7.6,��
2017/04/28,12:10,1.024,1.652,1.100,1.977,1.367,0.545,0.999,0.922,��쓌,7.9,��
2017/04/28,12:20,1.023,1.654,1.102,1.971,1.369,0.547,1.001,0.923,��쓌,7.4,��
2017/04/28,12:30,1.023,1.655,1.099,1.976,1.368,0.547,1.000,0.922,��쓌,7.5,��
2017/04/28,12:40,1.024,1.656,1.102,1.976,1.367,0.546,1.001,0.921,��쓌,7.4,��
2017/04/28,12:50,1.025,1.654,1.100,1.976,1.368,0.546,0.999,0.922,��쓌,6.8,��
2017/04/28,13:00,1.024,1.656,1.103,1.981,1.369,0.547,1.002,0.921,��쓌,6.4,��
2017/04/28,13:10,1.023,1.657,1.102,1.978,1.367,0.546,1.002,0.922,��쓌,7.6,��
2017/04/28,13:20,1.026,1.655,1.102,1.979,1.370,0.546,1.000,0.922,��쓌,7.5,��
2017/04/28,13:30,1.025,1.657,1.101,1.980,1.370,0.545,0.998,0.924,��쓌,7.5,��
2017/04/28,13:40,1.026,1.656,1.105,1.981,1.370,0.547,0.999,0.923,��쓌,9.1,��
2017/04/28,13:50,1.026,1.658,1.103,1.979,1.369,0.545,1.000,0.922,��쓌,6.5,��
2017/04/28,14:00,1.025,1.660,1.104,1.981,1.372,0.547,1.000,0.923,��쓌,7.0,��
2017/04/28,14:10,1.026,1.658,1.104,1.980,1.372,0.546,1.000,0.922,��쓌,5.5,��
2017/04/28,14:20,1.027,1.659,1.104,1.985,1.370,0.549,0.999,0.923,��쓌,7.8,��
2017/04/28,14:30,1.024,1.658,1.106,1.977,1.375,0.547,1.000,0.924,��쓌,8.3,��
2017/04/28,14:40,1.027,1.658,1.105,1.979,1.371,0.546,1.000,0.921,��쓌,7.3,��
2017/04/28,14:50,1.026,1.658,1.104,1.976,1.373,0.546,0.999,0.923,��쓌,7.8,��
2017/04/28,15:00,1.027,1.660,1.103,1.977,1.373,0.548,1.002,0.922,��쓌,6.6,��
2017/04/28,15:10,1.027,1.657,1.103,1.978,1.373,0.547,1.000,0.921,��쓌,6.9,��
2017/04/28,15:20,1.026,1.659,1.106,1.978,1.372,0.547,1.000,0.923,��쓌,6.9,��
2017/04/28,15:30,1.026,1.658,1.104,1.978,1.373,0.546,1.002,0.924,��쓌,6.5,��
2017/04/28,15:40,1.025,1.666,1.105,1.977,1.372,0.545,1.001,0.924,��쓌,7.8,��
2017/04/28,15:50,1.026,1.663,1.107,1.976,1.371,0.548,1.002,0.923,��쓌,8.3,��
2017/04/28,16:00,1.027,1.659,1.107,1.981,1.373,0.548,1.001,0.922,��,7.2,��
2017/04/28,16:10,1.025,1.661,1.105,1.978,1.371,0.547,1.001,0.922,��쓌,7.4,��
2017/04/28,16:20,1.026,1.661,1.106,1.978,1.372,0.548,1.000,0.921,��쓌,9.6,��
2017/04/28,16:30,1.024,1.662,1.106,1.978,1.373,0.548,1.001,0.922,��쓌,8.5,��
2017/04/28,16:40,1.026,1.662,1.108,1.980,1.371,0.549,1.001,0.925,��쓌,7.1,��
2017/04/28,16:50,1.026,1.661,1.105,1.981,1.373,0.549,1.001,0.923,��쓌,8.6,��
2017/04/28,17:00,1.026,1.663,1.107,1.974,1.372,0.547,0.998,0.924,��쓌,8.2,��
2017/04/28,17:10,1.028,1.662,1.103,1.980,1.373,0.548,1.000,0.924,��,8.5,��
2017/04/28,17:20,1.027,1.660,1.105,1.979,1.370,0.547,1.001,0.925,��쓌,7.0,��
2017/04/28,17:30,1.027,1.663,1.105,1.980,1.370,0.549,1.000,0.926,��,6.5,��
2017/04/28,17:40,1.029,1.661,1.105,1.979,1.369,0.548,0.999,0.925,��,7.2,��
2017/04/28,17:50,1.028,1.662,1.107,1.980,1.371,0.549,0.999,0.927,��,8.7,��
2017/04/28,18:00,1.030,1.665,1.108,1.979,1.370,0.549,0.999,0.926,��,8.9,��
2017/04/28,18:10,1.028,1.661,1.107,1.979,1.374,0.549,1.001,0.926,��,8.5,��
2017/04/28,18:20,1.031,1.664,1.109,1.983,1.373,0.549,0.998,0.925,��,8.6,��
2017/04/28,18:30,1.028,1.661,1.106,1.982,1.374,0.549,0.998,0.925,��,7.4,��
2017/04/28,18:40,1.027,1.661,1.107,1.983,1.373,0.547,1.003,0.925,��,8.4,��
2017/04/28,18:50,1.029,1.661,1.106,1.982,1.373,0.548,1.001,0.925,��,7.0,��
2017/04/28,19:00,1.029,1.663,1.105,1.980,1.376,0.548,1.000,0.924,��,7.4,��
2017/04/28,19:10,1.029,1.661,1.108,1.984,1.373,0.548,1.000,0.923,��,7.1,��
2017/04/28,19:20,1.028,1.661,1.105,1.982,1.373,0.548,1.002,0.924,��,6.7,��
2017/04/28,19:30,1.026,1.660,1.104,1.981,1.374,0.547,1.000,0.926,��,7.5,��
2017/04/28,19:40,1.029,1.659,1.106,1.980,1.374,0.547,1.002,0.923,��,6.6,��
2017/04/28,19:50,1.027,1.658,1.105,1.980,1.374,0.546,1.002,0.925,��,5.6,��
2017/04/28,20:00,1.030,1.658,1.103,1.980,1.374,0.547,1.001,0.924,��,6.2,��
2017/04/28,20:10,1.029,1.661,1.105,1.981,1.375,0.549,1.002,0.927,��,7.1,��
2017/04/28,20:20,1.027,1.662,1.108,1.981,1.372,0.546,1.001,0.924,��,6.6,��
2017/04/28,20:30,1.029,1.660,1.105,1.981,1.374,0.548,1.001,0.924,��,5.3,��
2017/04/28,20:40,1.026,1.658,1.106,1.982,1.371,0.548,1.000,0.925,��,6.2,��
2017/04/28,20:50,1.027,1.659,1.106,1.981,1.374,0.547,1.001,0.924,��,6.4,��
2017/04/28,21:00,1.028,1.661,1.107,1.983,1.371,0.548,1.004,0.925,��,6.1,��
2017/04/28,21:10,1.027,1.658,1.107,1.976,1.372,0.548,1.000,0.927,��,6.4,��
2017/04/28,21:20,1.030,1.657,1.105,1.980,1.373,0.550,1.002,0.925,��,6.9,��
2017/04/28,21:30,1.027,1.659,1.106,1.981,1.374,0.547,1.000,0.923,��,7.0,��
2017/04/28,21:40,1.027,1.659,1.106,1.980,1.372,0.548,1.001,0.924,��,5.8,��
2017/04/28,21:50,1.027,1.658,1.105,1.980,1.373,0.549,1.000,0.924,��,5.5,��
2017/04/28,22:00,1.027,1.654,1.105,1.979,1.371,0.546,1.000,0.923,��,4.1,��
2017/04/28,22:10,1.026,1.656,1.106,1.976,1.374,0.547,1.001,0.923,��,3.7,��
2017/04/28,22:20,1.025,1.658,1.105,1.981,1.370,0.547,1.002,0.924,��,2.9,��
2017/04/28,22:30,1.024,1.656,1.106,1.979,1.371,0.547,0.998,0.924,��,2.9,��
2017/04/28,22:40,1.024,1.655,1.105,1.977,1.375,0.547,1.000,0.923,��쓌,3.3,��
2017/04/28,22:50,1.026,1.656,1.102,1.981,1.371,0.548,1.001,0.923,��쓌,2.6,��
2017/04/28,23:00,1.027,1.654,1.104,1.978,1.371,0.546,1.000,0.924,��,2.5,��
2017/04/28,23:10,1.025,1.655,1.103,1.978,1.370,0.546,1.001,0.925,��쓌,2.0,��
2017/04/28,23:20,1.025,1.657,1.105,1.979,1.369,0.548,1.001,0.923,��쓌,3.0,��
2017/04/28,23:30,1.029,1.656,1.103,1.980,1.370,0.547,1.001,0.925,��쓌,3.4,��
2017/04/28,23:40,1.025,1.653,1.101,1.978,1.370,0.547,0.998,0.924,��쓌,3.4,��
2017/04/28,23:50,1.025,1.652,1.102,1.977,1.371,0.546,0.999,0.922,��,3.8,��
